TimeEST,TemperatureF,Dew PointF,Humidity,Sea Level PressureIn,VisibilityMPH,Wind Direction,Wind SpeedMPH,Gust SpeedMPH,PrecipitationIn,Events,Conditions,WindDirDegrees,DateUTC
12:53 AM,24.1,18.0,77,29.81,9.0,WNW,16.1,25.3,0.00,,Overcast,290,2014-01-15 05:53:00
1:30 AM,24.8,17.6,74,29.80,4.0,WNW,16.1,26.5,0.00,Snow,Light Snow,300,2014-01-15 06:30:00
1:53 AM,24.1,17.1,75,29.83,10.0,WNW,17.3,29.9,0.00,,Overcast,300,2014-01-15 06:53:00
2:26 AM,23.0,19.4,86,29.83,1.8,WNW,16.1,29.9,0.00,Snow,Light Snow,290,2014-01-15 07:26:00
2:35 AM,23.0,19.4,86,29.83,0.8,WNW,20.7,28.8,0.00,Snow,Light Snow,290,2014-01-15 07:35:00
2:48 AM,23.0,19.4,86,29.84,1.0,WNW,20.7,27.6,0.00,Snow,Light Snow,290,2014-01-15 07:48:00
2:49 AM,23.0,19.9,88,29.87,1.0,WNW,20.7,27.6,0.00,Snow,Light Snow,290,2014-01-15 07:49:00
3:09 AM,23.0,19.4,86,29.85,1.8,WNW,15.0,25.3,0.00,Snow,Light Snow,290,2014-01-15 08:09:00
3:23 AM,23.0,19.4,86,29.85,1.2,WNW,12.7,24.2,0.00,Snow,Light Snow,290,2014-01-15 08:23:00
3:34 AM,23.0,19.4,86,29.86,1.5,WNW,15.0,24.2,0.00,Snow,Light Snow,290,2014-01-15 08:34:00
3:43 AM,23.0,19.4,86,29.87,1.0,WNW,13.8,26.5,0.00,Snow,Light Snow,290,2014-01-15 08:43:00
3:53 AM,23.0,19.9,88,29.89,1.2,WNW,13.8,25.3,0.00,Snow,Light Snow,290,2014-01-15 08:53:00
4:12 AM,23.0,21.2,93,29.88,0.8,WNW,15.0,21.9,0.00,Snow,Light Snow,300,2014-01-15 09:12:00
4:33 AM,23.0,19.4,86,29.88,1.5,WNW,16.1,25.3,0.00,Snow,Light Snow,300,2014-01-15 09:33:00
4:42 AM,23.0,19.4,86,29.88,2.5,WNW,15.0,23.0,0.00,Snow,Light Snow,290,2014-01-15 09:42:00
4:53 AM,23.0,19.0,85,29.91,2.5,WNW,15.0,27.6,0.00,Snow,Light Snow,300,2014-01-15 09:53:00
5:15 AM,23.0,17.6,80,29.89,2.0,WNW,10.4,25.3,0.00,Snow,Light Snow,300,2014-01-15 10:15:00
5:25 AM,23.0,17.6,80,29.90,4.0,WNW,13.8,25.3,0.00,Snow,Light Snow,290,2014-01-15 10:25:00
5:53 AM,23.0,17.1,78,29.94,8.0,WNW,10.4,19.6,0.00,Snow,Light Snow,290,2014-01-15 10:53:00
6:23 AM,21.2,17.6,86,29.92,2.0,WNW,12.7,23.0,0.00,Snow,Light Snow,300,2014-01-15 11:23:00
6:33 AM,23.0,17.6,80,29.92,3.0,WNW,11.5,24.2,0.00,Snow,Light Snow,290,2014-01-15 11:33:00
6:53 AM,23.0,17.1,78,29.96,3.0,WNW,12.7,20.7,0.00,Snow,Light Snow,300,2014-01-15 11:53:00
7:00 AM,21.2,17.6,86,29.93,2.0,WNW,10.4,20.7,0.00,Snow,Light Snow,300,2014-01-15 12:00:00
7:09 AM,23.0,17.6,80,29.93,8.0,WNW,10.4,18.4,0.00,Snow,Light Snow,300,2014-01-15 12:09:00
7:23 AM,23.0,17.6,80,29.93,2.0,NW,9.2,18.4,0.00,Snow,Light Snow,310,2014-01-15 12:23:00
7:27 AM,23.0,17.6,80,29.94,3.0,WNW,13.8,18.4,0.00,Snow,Light Snow,300,2014-01-15 12:27:00
7:40 AM,23.0,17.6,80,29.94,5.0,WNW,11.5,17.3,0.00,Snow,Light Snow,300,2014-01-15 12:40:00
7:53 AM,23.0,17.1,78,29.97,4.0,WNW,11.5,19.6,0.00,Snow,Light Snow,300,2014-01-15 12:53:00
8:00 AM,21.2,19.4,93,29.95,2.5,WNW,10.4,20.7,0.00,Snow,Light Snow,290,2014-01-15 13:00:00
8:10 AM,21.2,19.4,93,29.95,1.5,WNW,11.5,20.7,0.00,Snow,Light Snow,290,2014-01-15 13:10:00
8:17 AM,23.0,19.4,86,29.95,3.0,NW,10.4,20.7,0.00,Snow,Light Snow,310,2014-01-15 13:17:00
8:53 AM,23.0,17.1,78,30.00,4.0,WNW,11.5,20.7,0.00,Snow,Light Snow,300,2014-01-15 13:53:00
9:19 AM,23.0,17.6,80,29.99,1.5,NW,10.4,-,0.00,Snow,Light Snow,310,2014-01-15 14:19:00
9:25 AM,21.2,17.6,86,29.99,0.8,NW,11.5,18.4,0.00,Snow,Light Snow,310,2014-01-15 14:25:00
9:44 AM,21.2,19.4,93,29.99,1.0,NW,11.5,20.7,0.00,Snow,Light Snow,310,2014-01-15 14:44:00
9:53 AM,23.0,18.0,81,30.02,2.0,WNW,11.5,17.3,0.00,Snow,Light Snow,290,2014-01-15 14:53:00
10:23 AM,23.0,17.6,80,30.00,1.8,Variable,6.9,-,0.00,Snow,Light Snow,0,2014-01-15 15:23:00
10:26 AM,23.0,17.6,80,30.00,2.0,NW,10.4,18.4,0.00,Snow,Light Snow,320,2014-01-15 15:26:00
10:38 AM,23.0,17.6,80,30.00,1.2,NW,12.7,17.3,0.00,Snow,Light Snow,310,2014-01-15 15:38:00
10:53 AM,21.9,18.0,85,30.04,1.0,NW,11.5,18.4,0.00,Snow,Light Snow,310,2014-01-15 15:53:00
10:58 AM,21.2,17.6,86,30.01,0.5,WNW,6.9,16.1,0.00,Fog-Snow,Snow,300,2014-01-15 15:58:00
11:07 AM,23.0,19.4,86,30.01,1.0,WNW,9.2,-,0.00,Snow,Light Snow,300,2014-01-15 16:07:00
11:12 AM,23.0,19.4,86,30.01,2.0,NW,9.2,-,0.00,Snow,Light Snow,310,2014-01-15 16:12:00
11:24 AM,23.0,17.6,80,30.02,1.8,WNW,8.1,18.4,0.00,Snow,Light Snow,300,2014-01-15 16:24:00
11:33 AM,23.0,17.6,80,30.01,1.0,Variable,6.9,16.1,0.00,Snow,Light Snow,0,2014-01-15 16:33:00
11:41 AM,23.0,17.6,80,30.01,2.0,WNW,11.5,16.1,0.00,Snow,Light Snow,300,2014-01-15 16:41:00
11:49 AM,23.0,15.8,74,30.01,9.0,NW,10.4,17.3,0.00,,Overcast,310,2014-01-15 16:49:00
11:53 AM,23.0,17.1,78,30.04,9.0,NW,8.1,17.3,0.00,,Overcast,310,2014-01-15 16:53:00
12:05 PM,23.0,15.8,74,30.01,10.0,WNW,10.4,-,N/A,,Overcast,290,2014-01-15 17:05:00
12:36 PM,23.0,17.6,80,30.01,1.8,WNW,8.1,-,0.00,Snow,Light Snow,300,2014-01-15 17:36:00
12:43 PM,21.2,17.6,86,30.00,0.8,WNW,9.2,-,0.00,Snow,Light Snow,290,2014-01-15 17:43:00
12:51 PM,21.2,19.4,93,30.00,0.8,Variable,6.9,-,0.00,Snow,Light Snow,0,2014-01-15 17:51:00
12:53 PM,21.9,18.0,85,30.04,1.0,NW,5.8,-,0.00,Snow,Light Snow,320,2014-01-15 17:53:00
12:56 PM,21.2,17.6,86,30.00,2.0,NW,6.9,-,0.00,Snow,Light Snow,310,2014-01-15 17:56:00
1:03 PM,23.0,17.6,80,30.00,7.0,NW,8.1,-,0.00,,Overcast,320,2014-01-15 18:03:00
1:14 PM,21.2,17.6,86,30.01,1.8,WNW,10.4,-,0.00,Snow,Light Snow,300,2014-01-15 18:14:00
1:16 PM,21.2,17.6,86,30.01,0.8,WNW,9.2,-,0.00,Snow,Light Snow,300,2014-01-15 18:16:00
1:24 PM,21.2,17.6,86,30.01,0.5,West,15.0,21.9,0.01,Fog-Snow,Snow,270,2014-01-15 18:24:00
1:30 PM,21.2,17.6,86,30.01,1.0,West,17.3,21.9,0.01,Snow,Light Snow,270,2014-01-15 18:30:00
1:35 PM,21.2,17.6,86,30.00,2.0,West,15.0,21.9,0.01,Snow,Light Snow,270,2014-01-15 18:35:00
1:53 PM,21.9,16.0,78,30.03,1.8,West,17.3,23.0,0.01,Snow,Light Snow,270,2014-01-15 18:53:00
1:59 PM,21.2,15.8,80,30.00,2.5,West,17.3,-,0.00,Snow,Light Snow,260,2014-01-15 18:59:00
2:08 PM,21.2,15.8,80,30.00,5.0,West,18.4,-,0.00,Snow,Light Snow,270,2014-01-15 19:08:00
2:50 PM,21.2,14.0,74,30.01,10.0,West,17.3,21.9,0.00,,Overcast,270,2014-01-15 19:50:00
2:53 PM,21.9,15.1,75,30.04,10.0,West,17.3,21.9,0.00,,Overcast,270,2014-01-15 19:53:00
3:06 PM,21.2,14.0,74,30.01,10.0,West,13.8,-,N/A,,Overcast,260,2014-01-15 20:06:00
3:13 PM,21.2,14.0,74,30.02,10.0,WSW,16.1,-,N/A,,Overcast,250,2014-01-15 20:13:00
3:53 PM,19.9,12.9,74,30.06,10.0,West,13.8,-,0.00,,Overcast,260,2014-01-15 20:53:00
4:53 PM,19.9,12.0,71,30.05,10.0,SW,8.1,-,N/A,,Overcast,220,2014-01-15 21:53:00
5:53 PM,19.9,12.0,71,30.04,10.0,SSW,5.8,-,N/A,,Overcast,200,2014-01-15 22:53:00
6:53 PM,19.9,12.9,74,30.04,9.0,SW,11.5,-,0.00,,Overcast,230,2014-01-15 23:53:00
7:53 PM,19.0,10.9,71,30.05,10.0,SSW,8.1,-,N/A,,Overcast,200,2014-01-16 00:53:00
8:53 PM,17.1,10.9,77,30.04,10.0,South,8.1,-,0.00,,Overcast,190,2014-01-16 01:53:00
9:53 PM,16.0,10.0,77,29.99,7.0,South,13.8,19.6,N/A,,Overcast,180,2014-01-16 02:53:00
10:51 PM,15.8,8.6,73,29.94,10.0,South,8.1,-,N/A,,Scattered Clouds,180,2014-01-16 03:51:00
10:53 PM,14.0,9.0,80,29.97,10.0,South,9.2,-,N/A,,Partly Cloudy,170,2014-01-16 03:53:00
11:53 PM,14.0,9.0,80,29.95,10.0,South,9.2,-,N/A,,Clear,180,2014-01-16 04:53:00